�������l�o���
Date,Time,MP-1(��Sv/h),MP-2(��Sv/h),MP-3(��Sv/h),MP-4(��Sv/h),MP-5(��Sv/h),MP-6(��Sv/h),MP-7(��Sv/h),MP-8(��Sv/h),����,����(m/s),���J
2016/12/03,00:00,1.084,1.826,1.218,2.061,1.416,0.571,1.038,0.962,�쐼,3.3,��
2016/12/03,00:10,1.082,1.825,1.217,2.062,1.414,0.572,1.040,0.961,�쐼,4.3,��
2016/12/03,00:20,1.083,1.824,1.216,2.062,1.416,0.574,1.039,0.962,���쐼,5.5,��
2016/12/03,00:30,1.084,1.828,1.221,2.062,1.418,0.574,1.038,0.961,���쐼,5.3,��
2016/12/03,00:40,1.084,1.826,1.219,2.061,1.418,0.574,1.039,0.964,���쐼,5.7,��
2016/12/03,00:50,1.084,1.827,1.217,2.064,1.419,0.574,1.040,0.960,���쐼,5.4,��
2016/12/03,01:00,1.084,1.826,1.219,2.065,1.416,0.574,1.039,0.964,���쐼,4.8,��
2016/12/03,01:10,1.084,1.825,1.221,2.062,1.420,0.573,1.039,0.960,���쐼,5.8,��
2016/12/03,01:20,1.084,1.826,1.220,2.062,1.419,0.575,1.040,0.960,�쐼,5.0,��
2016/12/03,01:30,1.084,1.826,1.215,2.062,1.416,0.574,1.038,0.964,���쐼,4.2,��
2016/12/03,01:40,1.084,1.825,1.217,2.062,1.416,0.572,1.038,0.961,�쐼,1.9,��
2016/12/03,01:50,1.084,1.825,1.217,2.062,1.417,0.573,1.039,0.961,�쐼,1.9,��
2016/12/03,02:00,1.085,1.824,1.215,2.059,1.416,0.574,1.039,0.961,��,1.2,��
2016/12/03,02:10,1.083,1.825,1.220,2.059,1.419,0.573,1.036,0.958,��쐼,2.3,��
2016/12/03,02:20,1.084,1.826,1.217,2.059,1.417,0.575,1.040,0.962,���쐼,2.0,��
2016/12/03,02:30,1.082,1.824,1.216,2.063,1.416,0.573,1.037,0.961,���쐼,2.9,��
2016/12/03,02:40,1.083,1.825,1.215,2.062,1.416,0.573,1.037,0.960,��,3.5,��
2016/12/03,02:50,1.083,1.826,1.217,2.061,1.416,0.573,1.037,0.961,��,3.6,��
2016/12/03,03:00,1.083,1.824,1.218,2.059,1.415,0.573,1.038,0.963,���쐼,3.2,��
2016/12/03,03:10,1.083,1.825,1.216,2.058,1.416,0.573,1.038,0.963,��쐼,2.3,��
2016/12/03,03:20,1.081,1.822,1.216,2.063,1.415,0.573,1.037,0.961,��쐼,3.0,��
2016/12/03,03:30,1.085,1.819,1.216,2.058,1.417,0.573,1.037,0.962,��쐼,2.6,��
2016/12/03,03:40,1.082,1.823,1.217,2.059,1.416,0.572,1.038,0.961,��쐼,2.0,��
2016/12/03,03:50,1.083,1.825,1.215,2.063,1.416,0.570,1.037,0.963,�쐼,2.5,��
2016/12/03,04:00,1.080,1.825,1.215,2.062,1.415,0.572,1.036,0.961,��쐼,3.2,��
2016/12/03,04:10,1.083,1.820,1.215,2.060,1.417,0.572,1.035,0.961,�쐼,2.9,��
2016/12/03,04:20,1.083,1.825,1.217,2.062,1.415,0.572,1.037,0.961,���쐼,3.9,��
2016/12/03,04:30,1.082,1.823,1.216,2.061,1.416,0.571,1.036,0.961,���쐼,3.4,��
2016/12/03,04:40,1.081,1.821,1.216,2.061,1.417,0.572,1.040,0.961,���쐼,4.7,��
2016/12/03,04:50,1.083,1.825,1.215,2.059,1.416,0.572,1.039,0.960,��,4.0,��
2016/12/03,05:00,1.083,1.825,1.216,2.059,1.418,0.570,1.037,0.961,��,4.4,��
2016/12/03,05:10,1.079,1.826,1.216,2.061,1.416,0.573,1.039,0.959,��,3.8,��
2016/12/03,05:20,1.083,1.823,1.216,2.060,1.414,0.573,1.036,0.960,���쐼,4.3,��
2016/12/03,05:30,1.082,1.825,1.218,2.060,1.419,0.571,1.037,0.959,��,4.6,��
2016/12/03,05:40,1.080,1.824,1.216,2.058,1.417,0.572,1.035,0.960,���쐼,4.1,��
2016/12/03,05:50,1.081,1.824,1.214,2.057,1.418,0.571,1.038,0.961,��,4.9,��
2016/12/03,06:00,1.082,1.823,1.214,2.058,1.415,0.572,1.039,0.960,���k��,3.9,��
2016/12/03,06:10,1.082,1.826,1.217,2.060,1.415,0.571,1.038,0.960,���k��,4.3,��
2016/12/03,06:20,1.081,1.824,1.213,2.063,1.418,0.572,1.038,0.961,���k��,5.7,��
2016/12/03,06:30,1.080,1.822,1.216,2.062,1.416,0.570,1.038,0.959,���k��,7.1,��
2016/12/03,06:40,1.081,1.824,1.213,2.062,1.416,0.572,1.037,0.962,���k��,7.5,��
2016/12/03,06:50,1.083,1.825,1.214,2.061,1.416,0.570,1.038,0.961,���k��,8.0,��
2016/12/03,07:00,1.081,1.823,1.216,2.060,1.414,0.569,1.039,0.962,���k��,6.3,��
2016/12/03,07:10,1.084,1.825,1.215,2.061,1.417,0.572,1.039,0.959,���k��,6.8,��
2016/12/03,07:20,1.081,1.825,1.213,2.062,1.415,0.572,1.038,0.961,���k��,7.4,��
2016/12/03,07:30,1.081,1.829,1.216,2.065,1.414,0.572,1.039,0.961,���k��,7.7,��
2016/12/03,07:40,1.080,1.826,1.216,2.061,1.416,0.573,1.037,0.960,���k��,6.8,��
2016/12/03,07:50,1.083,1.826,1.214,2.063,1.415,0.570,1.037,0.960,���k��,6.8,��
2016/12/03,08:00,1.084,1.822,1.213,2.061,1.417,0.571,1.039,0.960,���k��,7.1,��
2016/12/03,08:10,1.082,1.823,1.215,2.063,1.415,0.571,1.039,0.961,���k��,6.3,��
2016/12/03,08:20,1.083,1.825,1.216,2.064,1.418,0.572,1.039,0.962,���k��,6.6,��
2016/12/03,08:30,1.085,1.825,1.216,2.065,1.419,0.571,1.040,0.963,���k��,5.7,��
2016/12/03,08:40,1.085,1.826,1.214,2.066,1.417,0.571,1.039,0.962,���k��,4.3,��
2016/12/03,08:50,1.084,1.826,1.213,2.067,1.417,0.571,1.039,0.961,���k��,3.8,��
2016/12/03,09:00,1.081,1.826,1.217,2.067,1.422,0.572,1.039,0.962,���k��,4.1,��
2016/12/03,09:10,1.083,1.830,1.216,2.066,1.419,0.572,1.039,0.963,��,4.9,��
2016/12/03,09:20,1.084,1.830,1.215,2.069,1.418,0.572,1.038,0.961,��,4.8,��
2016/12/03,09:30,1.082,1.831,1.216,2.068,1.421,0.571,1.037,0.962,��,3.1,��
2016/12/03,09:40,1.083,1.832,1.215,2.069,1.417,0.572,1.036,0.963,���쐼,1.7,��
2016/12/03,09:50,1.083,1.829,1.214,2.069,1.418,0.575,1.034,0.962,���k��,3.5,��
2016/12/03,10:00,1.084,1.831,1.212,2.072,1.417,0.574,1.039,0.961,���k��,3.1,��
2016/12/03,10:10,1.087,1.830,1.212,2.066,1.420,0.573,1.038,0.963,��,2.5,��
2016/12/03,10:20,1.087,1.832,1.213,2.068,1.418,0.572,1.037,0.963,�k��,2.0,��
2016/12/03,10:30,1.086,1.823,1.216,2.069,1.412,0.573,1.039,0.963,�k�k��,2.6,��
2016/12/03,10:40,1.086,1.829,1.215,2.069,1.394,0.573,1.037,0.961,�k,1.2,��
2016/12/03,10:50,1.086,1.831,1.216,2.070,1.390,0.572,1.038,0.965,�k�k��,1.7,��
2016/12/03,11:00,1.089,1.830,1.213,2.069,1.407,0.573,1.037,0.962,�k�k��,1.2,��
2016/12/03,11:10,1.087,1.830,1.211,2.071,1.408,0.571,1.041,0.963,���k��,2.8,��
2016/12/03,11:20,1.089,1.828,1.212,2.071,1.414,0.572,1.037,0.963,�k��,2.6,��
2016/12/03,11:30,1.089,1.830,1.215,2.066,1.396,0.572,1.039,0.964,���k��,3.5,��
2016/12/03,11:40,1.088,1.831,1.218,2.071,1.396,0.571,1.040,0.962,���k��,3.3,��
2016/12/03,11:50,1.087,1.829,1.216,2.070,1.403,0.571,1.039,0.965,���k��,4.7,��
2016/12/03,12:00,1.089,1.830,1.216,2.069,1.410,0.572,1.038,0.963,�k��,4.8,��
2016/12/03,12:10,1.086,1.831,1.215,2.070,1.416,0.572,1.039,0.965,�k��,4.1,��
2016/12/03,12:20,1.090,1.832,1.214,2.068,1.424,0.576,1.039,0.965,�k��,4.0,��
2016/12/03,12:30,1.088,1.831,1.217,2.072,1.421,0.574,1.037,0.964,�k��,3.6,��
2016/12/03,12:40,1.088,1.829,1.214,2.072,1.421,0.574,1.040,0.965,�k��,3.8,��
2016/12/03,12:50,1.088,1.830,1.216,2.068,1.422,0.576,1.038,0.961,���k��,3.5,��
2016/12/03,13:00,1.088,1.827,1.216,2.073,1.423,0.574,1.039,0.960,�k��,3.8,��
2016/12/03,13:10,1.088,1.834,1.215,2.072,1.425,0.575,1.040,0.960,�k�k��,3.4,��
2016/12/03,13:20,1.090,1.829,1.214,2.070,1.424,0.575,1.039,0.962,�k��,2.6,��
2016/12/03,13:30,1.089,1.831,1.215,2.070,1.425,0.575,1.040,0.960,���k��,3.8,��
2016/12/03,13:40,1.091,1.832,1.216,2.069,1.425,0.574,1.038,0.962,���k��,2.8,��
2016/12/03,13:50,1.088,1.835,1.216,2.070,1.426,0.574,1.040,0.959,���k��,3.3,��
2016/12/03,14:00,1.091,1.833,1.218,2.072,1.424,0.574,1.039,0.961,���k��,4.1,��
2016/12/03,14:10,1.093,1.835,1.217,2.070,1.425,0.573,1.038,0.963,���k��,3.7,��
2016/12/03,14:20,1.091,1.831,1.217,2.071,1.427,0.574,1.040,0.961,���k��,3.5,��
2016/12/03,14:30,1.093,1.833,1.215,2.072,1.425,0.574,1.040,0.959,���k��,2.6,��
2016/12/03,14:40,1.092,1.830,1.215,2.072,1.425,0.574,1.038,0.961,���k��,3.4,��
2016/12/03,14:50,1.091,1.830,1.217,2.071,1.423,0.575,1.040,0.960,���k��,3.2,��
2016/12/03,15:00,1.095,1.835,1.219,2.069,1.425,0.573,1.038,0.959,���쓌,3.5,��
2016/12/03,15:10,1.092,1.837,1.218,2.070,1.424,0.575,1.039,0.963,���쓌,3.4,��
2016/12/03,15:20,1.093,1.837,1.218,2.072,1.424,0.574,1.040,0.964,�쓌,3.0,��
2016/12/03,15:30,1.092,1.838,1.220,2.071,1.426,0.574,1.041,0.963,���쓌,2.8,��
2016/12/03,15:40,1.093,1.834,1.219,2.071,1.424,0.574,1.039,0.963,�쓌,2.9,��
2016/12/03,15:50,1.092,1.836,1.219,2.071,1.427,0.575,1.040,0.963,�쓌,2.2,��
2016/12/03,16:00,1.091,1.840,1.221,2.072,1.422,0.574,1.039,0.963,���쓌,1.9,��
2016/12/03,16:10,1.092,1.836,1.219,2.069,1.422,0.573,1.040,0.961,�쓌,1.5,��
2016/12/03,16:20,1.093,1.837,1.218,2.070,1.424,0.574,1.041,0.965,��쓌,1.9,��
2016/12/03,16:30,1.090,1.836,1.219,2.072,1.425,0.572,1.039,0.964,�쓌,1.9,��
2016/12/03,16:40,1.090,1.836,1.217,2.071,1.426,0.573,1.039,0.963,��쓌,3.1,��
2016/12/03,16:50,1.090,1.835,1.218,2.067,1.428,0.574,1.040,0.961,��,3.3,��
2016/12/03,17:00,1.094,1.836,1.219,2.068,1.426,0.573,1.038,0.964,��,3.4,��
2016/12/03,17:10,1.090,1.838,1.220,2.068,1.425,0.575,1.037,0.962,��,3.3,��
2016/12/03,17:20,1.088,1.833,1.219,2.068,1.426,0.573,1.039,0.961,��,3.0,��
2016/12/03,17:30,1.090,1.834,1.217,2.065,1.425,0.574,1.040,0.963,��,2.5,��
2016/12/03,17:40,1.092,1.833,1.219,2.069,1.426,0.574,1.041,0.962,��쐼,2.5,��
2016/12/03,17:50,1.091,1.836,1.219,2.069,1.425,0.572,1.038,0.963,��쐼,3.3,��
2016/12/03,18:00,1.090,1.834,1.220,2.068,1.428,0.573,1.038,0.962,��쐼,2.8,��
2016/12/03,18:10,1.089,1.834,1.218,2.070,1.426,0.571,1.038,0.962,��쐼,2.6,��
2016/12/03,18:20,1.090,1.836,1.216,2.069,1.424,0.573,1.037,0.962,��쐼,3.3,��
2016/12/03,18:30,1.089,1.832,1.219,2.070,1.423,0.573,1.041,0.961,��쐼,3.7,��
2016/12/03,18:40,1.086,1.831,1.218,2.067,1.425,0.572,1.039,0.961,��쐼,3.5,��
2016/12/03,18:50,1.089,1.834,1.217,2.066,1.424,0.572,1.038,0.965,��쐼,2.6,��
2016/12/03,19:00,1.088,1.835,1.217,2.070,1.424,0.573,1.038,0.964,��쐼,1.7,��
2016/12/03,19:10,1.089,1.835,1.218,2.068,1.423,0.572,1.037,0.961,��쐼,2.2,��
2016/12/03,19:20,1.089,1.831,1.218,2.065,1.425,0.571,1.037,0.962,��,2.6,��
2016/12/03,19:30,1.089,1.833,1.218,2.066,1.425,0.572,1.038,0.962,��쐼,2.6,��
2016/12/03,19:40,1.089,1.831,1.217,2.068,1.426,0.572,1.039,0.962,��,3.1,��
2016/12/03,19:50,1.090,1.831,1.216,2.067,1.423,0.570,1.038,0.962,��,3.3,��
2016/12/03,20:00,1.088,1.836,1.217,2.069,1.424,0.571,1.035,0.961,��,3.3,��
2016/12/03,20:10,1.089,1.835,1.217,2.066,1.424,0.570,1.037,0.961,��,3.6,��
2016/12/03,20:20,1.086,1.831,1.215,2.067,1.422,0.572,1.038,0.961,��,2.5,��
2016/12/03,20:30,1.092,1.832,1.217,2.066,1.424,0.572,1.038,0.961,��,2.6,��
2016/12/03,20:40,1.093,1.834,1.219,2.068,1.426,0.572,1.039,0.962,��,2.5,��
2016/12/03,20:50,1.092,1.831,1.218,2.069,1.426,0.573,1.038,0.961,��,2.5,��
2016/12/03,21:00,1.093,1.833,1.217,2.066,1.427,0.573,1.038,0.960,��,2.8,��
2016/12/03,21:10,1.092,1.834,1.219,2.070,1.427,0.572,1.039,0.962,��쐼,2.6,��
2016/12/03,21:20,1.092,1.834,1.219,2.071,1.424,0.570,1.039,0.964,��쐼,2.2,��
2016/12/03,21:30,1.090,1.835,1.216,2.066,1.426,0.572,1.039,0.963,��쐼,2.3,��
2016/12/03,21:40,1.093,1.832,1.215,2.066,1.424,0.573,1.038,0.962,��쐼,2.3,��
2016/12/03,21:50,1.085,1.833,1.220,2.069,1.423,0.573,1.038,0.962,��쐼,2.0,��
2016/12/03,22:00,1.086,1.833,1.216,2.066,1.423,0.573,1.037,0.963,�쐼,2.0,��
2016/12/03,22:10,1.088,1.832,1.218,2.068,1.424,0.573,1.038,0.962,��쐼,2.0,��
2016/12/03,22:20,1.087,1.832,1.218,2.066,1.422,0.571,1.037,0.961,��쐼,2.0,��
2016/12/03,22:30,1.086,1.831,1.218,2.067,1.423,0.571,1.037,0.961,��쐼,2.0,��
2016/12/03,22:40,1.084,1.832,1.216,2.067,1.424,0.573,1.035,0.962,��쐼,2.0,��
2016/12/03,22:50,1.085,1.831,1.220,2.066,1.427,0.573,1.037,0.964,��쐼,2.0,��
2016/12/03,23:00,1.086,1.834,1.218,2.068,1.424,0.573,1.036,0.961,��쐼,1.5,��
2016/12/03,23:10,1.086,1.831,1.218,2.066,1.425,0.571,1.038,0.962,��쓌,2.0,��
2016/12/03,23:20,1.088,1.832,1.218,2.067,1.425,0.573,1.039,0.963,��,1.7,��
2016/12/03,23:30,1.084,1.835,1.220,2.068,1.426,0.575,1.039,0.961,��,1.9,��
2016/12/03,23:40,1.085,1.834,1.217,2.066,1.427,0.572,1.038,0.961,��쓌,1.2,��
2016/12/03,23:50,1.086,1.836,1.218,2.067,1.424,0.572,1.037,0.964,��쓌,1.5,��
